DW5624 Weather Reports


time (UTC)temp
F
wind
direction
speed
knots
gust
knots
rain 1hr
in
rain 24hr
in
rain mn
in
humidity
%
barometer
mb
20260504192404 84 180 6.1 12.2 0.00 0.00 0.00 65 1011.8
20260504191905 84 166 5.2 8.7 0.00 0.00 0.00 64 1011.9
20260504190404 83 155 6.1 10.4 0.00 0.00 0.00 61 1012.0
20260504185905 83 135 5.2 10.4 0.00 0.00 0.00 62 1012.1
20260504184405 84 154 6.1 10.4 0.00 0.00 0.00 63 1012.1
20260504182905 84 186 5.2 12.2 0.00 0.00 0.00 63 1012.2
20260504182405 84 143 6.1 11.3 0.00 0.00 0.00 61 1012.6
20260504181405 84 184 6.1 8.7 0.00 0.00 0.00 62 1012.7
20260504174405 82 171 6.1 13.9 0.00 0.00 0.00 63 1012.9
20260504171905 82 169 5.2 10.4 0.00 0.00 0.00 64 1013.2
20260504160404 80 174 4.3 10.4 0.00 0.00 0.00 65 1014.2
20260504140905 72 130 4.3 7.8 0.00 0.00 0.00 76 1014.0
20260504130404 61 322 0.0 1.7 0.00 0.00 0.00 94 1014.2
20260504081405 59 115 0.0 0.0 0.00 0.00 0.00 85 1015.0
20260504070404 60 115 0.0 0.0 0.00 0.00 0.00 82 1015.8
20260504050404 62 115 0.0 0.0 0.00 0.00 0.00 76 1016.6
20260504045405 62 115 0.0 0.0 0.00 0.00 0.00 75 1016.6
20260504044405 62 115 0.0 0.0 0.00 0.00 0.00 75 1016.7
20260504043904 62 115 0.0 0.0 0.00 0.00 0.00 74 1016.9
20260504043404 63 115 0.0 0.0 0.00 0.00 0.00 74 1016.9
20260504041404 64 115 0.0 0.9 0.00 0.00 0.00 72 1016.7
20260504035904 64 115 0.0 1.7 0.00 0.00 0.00 71 1016.7
20260504032404 65 115 0.0 0.0 0.00 0.00 0.00 69 1016.8
20260504031904 66 115 0.9 2.6 0.00 0.00 0.00 68 1016.8
20260504025904 66 116 2.6 5.2 0.00 0.00 0.00 66 1016.6
20260504025405 67 112 0.9 6.1 0.00 0.00 0.00 66 1016.7
20260504023904 67 111 1.7 2.6 0.00 0.00 0.00 65 1016.7
20260504023404 67 111 1.7 4.3 0.00 0.00 0.00 65 1016.6
20260504022904 68 101 1.7 2.6 0.00 0.00 0.00 65 1016.6
20260504022405 68 113 2.6 5.2 0.00 0.00 0.00 65 1016.6
20260504020904 68 113 2.6 6.1 0.00 0.00 0.00 64 1016.5
20260504020404 68 123 2.6 6.1 0.00 0.00 0.00 63 1016.5
20260504013904 69 116 2.6 5.2 0.00 0.00 0.00 63 1016.5
20260504013404 69 117 2.6 5.2 0.00 0.00 0.00 62 1016.5
20260504012904 70 115 1.7 4.3 0.00 0.00 0.00 62 1016.5
20260504011904 70 140 2.6 5.2 0.00 0.00 0.00 61 1016.4
20260504010904 71 117 1.7 4.3 0.00 0.00 0.00 59 1016.3
20260504010404 71 114 4.3 7.8 0.00 0.00 0.00 58 1016.4
20260504005404 72 115 2.6 6.1 0.00 0.00 0.00 57 1016.4
20260504004904 72 119 3.5 6.1 0.00 0.00 0.00 56 1016.3
20260504004404 72 139 4.3 7.0 0.00 0.00 0.00 56 1016.3
20260504003404 73 105 4.3 7.0 0.00 0.00 0.00 53 1016.3
20260504002904 73 115 3.5 7.0 0.00 0.00 0.00 53 1016.3
20260504002404 73 126 3.5 6.1 0.00 0.00 0.00 53 1016.3
20260504000904 75 145 2.6 5.2 0.00 0.00 0.00 51 1016.3
20260504000404 75 118 3.5 8.7 0.00 0.00 0.00 50 1016.5
20260503235404 76 140 5.2 8.7 0.00 0.00 0.00 50 1016.3
20260503234904 76 115 4.3 7.8 0.00 0.00 0.00 50 1016.5
20260503234405 76 107 4.3 10.4 0.00 0.00 0.00 49 1016.6
20260503233904 77 138 4.3 7.0 0.00 0.00 0.00 49 1016.6
20260503233404 77 179 5.2 12.2 0.00 0.00 0.00 49 1016.7
20260503231904 78 110 4.3 10.4 0.00 0.00 0.00 47 1016.6
20260503231404 78 129 4.3 10.4 0.00 0.00 0.00 46 1016.6
20260503230904 78 122 5.2 7.8 0.00 0.00 0.00 45 1016.6
20260503230404 79 138 3.5 7.8 0.00 0.00 0.00 46 1016.7
20260503225904 79 122 4.3 7.8 0.00 0.00 0.00 46 1016.8
20260503223903 79 137 4.3 8.7 0.00 0.00 0.00 46 1017.0
20260503223405 80 113 3.5 7.0 0.00 0.00 0.00 45 1017.1
20260503222904 80 112 5.2 10.4 0.00 0.00 0.00 43 1017.1
20260503222404 80 113 5.2 7.8 0.00 0.00 0.00 46 1017.2
20260503220904 80 80 5.2 8.7 0.00 0.00 0.00 43 1017.1
20260503220404 81 171 4.3 7.0 0.00 0.00 0.00 45 1017.1
20260503215904 81 149 3.5 7.8 0.00 0.00 0.00 47 1017.1
20260503215404 82 148 5.2 10.4 0.00 0.00 0.00 42 1017.1
20260503213904 84 49 4.3 7.8 0.00 0.00 0.00 41 1017.4
20260503213404 85 48 4.3 7.0 0.00 0.00 0.00 40 1017.5
20260503212904 85 14 1.7 8.7 0.00 0.00 0.00 41 1017.5
20260503205403 86 50 5.2 7.8 0.00 0.00 0.00 39 1017.9
20260503204905 86 53 5.2 10.4 0.00 0.00 0.00 39 1017.9
20260503204404 85 72 4.3 7.0 0.00 0.00 0.00 39 1018.0
20260503203904 85 36 4.3 11.3 0.00 0.00 0.00 40 1018.1
20260503202404 85 51 2.6 7.0 0.00 0.00 0.00 43 1018.5
20260503201404 85 59 6.1 8.7 0.00 0.00 0.00 40 1018.7
20260503195904 85 65 5.2 10.4 0.00 0.00 0.00 40 1018.9
20260503195404 85 66 6.1 10.4 0.00 0.00 0.00 39 1019.0
20260503194904 85 65 6.1 10.4 0.00 0.00 0.00 39 1019.0
20260503193403 85 8 5.2 10.4 0.00 0.00 0.00 41 1019.4
20260503192904 85 71 6.1 10.4 0.00 0.00 0.00 39 1019.4